CZ-6A DEB, 58202

Orbit data source: Space-Track

CZ-6A DEB, 58202 is space debris in SSO originally from a launch on Tue, 31 Oct 2023 UTC launched from the Taiyaun Space Center, China (TSC). Debris objects in space refer to the collection of defunct objects orbiting the Earth. Examples of debris include non-operational satellites, rocket bodies, and fragments generated from explosions, collisions, or faulty payload assembly.

Loading next visibility...
Identifier
58202, 2023-168D
Orbit
SSO
Country
Flag of CNCN / PRC
Related business
Manufacturer
SAST
Mission
Spacecraft
Bus & Motor
Unknown
Mass
~50 kg wet, ~50 kg dry
Launch date (UTC)
2023-10-31 (2 years ago)
Launch vehicle
Unknown
Launch site
Taiyaun Space Center, China (TSC)
Object type
Payload
Rocket body
Debris
Shape & HBR
Cone, 0.3 m
Radar Cross Section
0.159 m², Large (>1 m²)

Expand to show TLE details & history
Last TLE update: 6 hours ago

TLE from 6 hours ago
0 CZ-6A DEB
1 58202U 23168D   25308.80080499  .00024414  00000-0  11744-2 0  9997
2 58202  97.7944 328.6700 0002377  24.9410 335.1938 15.18783601110198
Epoch: 2025-11-04T19:13Z
TLE epoch observation values (Epoch: 2025-11-04T19:13:09.551Z)
Latitude
0.00002°
Longitude
-3.90242°
Altitude
511.107 km
Speed
7.609 km/s
True Right ascension
21h 54m 40s
True Declination
0° 00' 00"
Sunlit
Object was in daylight at epoch
Visualization orbit readout
Latitude
Unknown
Longitude
Unknown
Altitude
Unknown
Speed
Unknown
Apparent Right ascension
Unknown
Apparent Declination
Unknown
Sunlit
N/A
Visualization observer readout
Local Sidereal Time
21:21:21
Azimuth
Unknown
Elevation
Unknown
Doppler factor
Unknown
Orbital elements
Apogee altitude
508.137 km
Perigee altitude
504.864 km
Semi-major axis
6,884.637 km
Eccentricity
0.00024
Inclination
97.7944°
RAAN
328.67°
Arg. of periapsis
24.941°
True anomaly
335.18237°
Mean anomaly
335.1938°
Eccentric anomaly
335.18808°
Mean motion
3.79946 °/min
Orbital period
94.75 mins
BSTAR
0.0011744
Loading maneuver chart data...
Computing Atmospheric mass density...
Loading historical data...
Loading historical data...
Loading historical data...
Loading historical data...
Loading historical data...
Loading historical data...
Loading historical data...
Other satellites on launch #168 in the year 2023 (2023-10-31 UTC)

Documentation

Showing up to 5 results
|